Weather History for Campo, CA

Change the Weather History Date:

Tuesday, September 11, 2012

  Actual Average Record
Temperature  
Mean Temperature 70 °F 70 °F  
Max Temperature 77 °F 91 °F 104 °F (1990)
Min Temperature 62 °F 50 °F 34 °F (1991)
Degree Days  
Heating Degree Days 0 1  
Month to date heating degree days 0 9  
Since 1 July heating degree days 9 23  
Cooling Degree Days 5 6  
Month to date cooling degree days 105 79  
Year to date cooling degree days 759 729  
Growing Degree Days 18 (Base 50)    
Moisture  
Dew Point 64 °F    
Average Humidity 85    
Maximum Humidity 100    
Minimum Humidity 69    
Precipitation  
Precipitation 0.00 in 0.01 in 0.44 in (1960)
Month to date precipitation 0.52 0.14  
Year to date precipitation 7.47 11.31  
Since 1 July precipitation 1.42 1.16  
Snow  
Snow 0.00 in - - ()
Month to date snowfall 0.0  
Year to date snowfall 0.0  
Since 1 July snowfall 0.0  
Snow Depth 0.00 in    
Sea Level Pressure  
Sea Level Pressure 29.87 in    
Wind  
Wind Speed 8 mph (SSW)    
Max Wind Speed 21 mph    
Max Gust Speed 24 mph    
T = Trace of Precipitation, MM = Missing Value Source: NWS Daily Summary

Daily Weather History Graph

Daily Weather History Graph

Search for Another Location

Airport:

Trip Planner

Search our weather history database for the weather conditions in past years. The results will help you decide how hot, cold, wet, or windy it might be!

Date:

Astronomy

Sep. 11, 2012 Rise Set
Actual Time 6:27 AM PDT 6:56 PM PDT
Civil Twilight 6:02 AM PDT 7:21 PM PDT
Nautical Twilight 5:33 AM PDT 7:50 PM PDT
Astronomical Twilight 5:04 AM PDT 8:19 PM PDT
Moon 2:01 AM PDT (9/11) 3:59 PM PDT (9/11)
Length of Visible Light 13h 18m
Length of Day
12h 29m
Waning Crescent, 20% of the Moon is Illuminated
Sep 11
Waning Crescent
Sep 15
New
Sep 22
First Quarter
Sep 29
Full
Oct 8
Last Quarter

Hourly Weather History & Observations

Time (PDT) Temp. Dew Point Humidity Pressure Visibility Wind Dir Wind Speed Gust Speed Precip Events Conditions
12:52 AM 64.9 °F 64.0 °F 97% 29.85 in - Calm Calm - N/A   Unknown
1:52 AM 64.9 °F 63.0 °F 93% 29.85 in - NE 4.6 mph - N/A   Unknown
2:52 AM 64.9 °F 64.0 °F 97% 29.84 in - East 3.5 mph - N/A   Unknown
3:52 AM 64.0 °F 63.0 °F 96% 29.83 in - ENE 4.6 mph - N/A   Unknown
4:52 AM 64.0 °F 62.1 °F 93% 29.84 in - Calm Calm - N/A   Unknown
5:52 AM 62.1 °F 61.0 °F 96% 29.84 in - NE 3.5 mph - N/A   Unknown
6:52 AM 63.0 °F 61.0 °F 93% 29.85 in - Calm Calm - N/A   Unknown
7:52 AM 66.0 °F 63.0 °F 90% 29.86 in - ENE 3.5 mph - N/A   Unknown
8:52 AM 72.0 °F 64.9 °F 78% 29.87 in - Calm Calm - N/A   Unknown
9:52 AM 73.9 °F 64.9 °F 73% 29.88 in - SSW 8.1 mph - N/A   Unknown
10:52 AM 75.9 °F 64.0 °F 67% 29.88 in - SW 9.2 mph - N/A   Unknown
11:52 AM 75.9 °F 64.9 °F 69% 29.88 in - SSW 13.8 mph - N/A   Unknown
12:52 PM 75.0 °F 64.9 °F 71% 29.86 in - SSW 17.3 mph - N/A   Unknown
1:52 PM 73.9 °F 66.0 °F 76% 29.86 in - SW 18.4 mph - N/A   Unknown
2:52 PM 73.9 °F 64.9 °F 73% 29.85 in - SW 18.4 mph - N/A   Unknown
3:52 PM 72.0 °F 64.9 °F 78% 29.86 in - SW 16.1 mph 24.2 mph N/A   Unknown
4:52 PM 71.1 °F 64.9 °F 81% 29.86 in - SW 13.8 mph - N/A   Unknown
5:52 PM 69.1 °F 64.0 °F 84% 29.87 in - SSW 9.2 mph - N/A   Unknown
6:52 PM 66.9 °F 64.0 °F 90% 29.88 in - SSW 8.1 mph - N/A   Unknown
7:52 PM 66.0 °F 64.0 °F 93% 29.90 in - SW 9.2 mph - N/A   Unknown
8:52 PM 66.0 °F 64.0 °F 93% 29.91 in - SW 4.6 mph - N/A   Unknown
9:52 PM 66.0 °F 63.0 °F 90% 29.92 in - SW 6.9 mph - N/A   Unknown
10:52 PM 66.0 °F 63.0 °F 90% 29.92 in - South 3.5 mph - N/A   Unknown
11:52 PM 66.0 °F 63.0 °F 90% 29.92 in - Calm Calm - N/A   Unknown